Weather in Sharivka

Ukraine / Kirovohrad Region     48°30′07″N   32°47′35″E
temp.,
°C
wind,
m/s
gust,
m/s
humid.,
%
clouds,
%
prec.,
mm/h
press.,
hPa
HPBL,
m
9 may, sun
sun900:00+5nw612865 0.0 1017472
03:00+4nw612905 0.0 1018459
06:00+3nw511930 0.0 1020368
09:00+8nnw710595 0.0 10221198
12:00+12nnw81046100 0.0 10222280
15:00+11nw894871 0.0 10231808
18:00+12nw68525 0.1 10241615
21:00+7nw34694 0.1 102662
10 may, mon
mon1000:00+6nw33755 0.0 102741
03:00+5nnw22781 0.0 102822
06:00+5nnw22770 0.0 102829
09:00+11n34523 0.0 1028788
12:00+14n56393 0.0 10271797
15:00+15n66370 0.0 10251818
18:00+14n57461 0.0 10241714
21:00+8n49685 0.0 1024148
11 may, tue
tue1100:00+7nnw410730 0.0 1023183
03:00+7nnw6147673 0.0 1021371
06:00+9nnw71464100 0.0 1019515
09:00+10n71174100 0.0 1018529
12:00+15n81067100 0.0 1017900
15:00+15nne81177100 0.1 10161280
18:00+12ne598482 0.3 1017668
21:00+8ne48793 0.3 1017152
12 may, wed
wed1200:00+6nne4108827 0.0 1016234
03:00+7ne5986100 0.0 1014597
06:00+7ne5887100 0.1 1014595
09:00+8ne5784100 0.2 1013947
12:00+8ne238091 0.3 1013485
15:00+12wsw225932 0.4 10121245
18:00+13ssw345573 0.2 10121420
21:00+8s33731 0.3 101320
13 may, thu
thu1300:00+8sse347295 0.0 101465
03:00+8se3484100 0.0 101471
06:00+9se369679 0.0 1013131
09:00+15ese5769100 0.0 1013558
12:00+19se685694 0.0 10111437
15:00+21se7851100 0.0 10101773
18:00+21se585547 0.0 10091390
21:00+15se41076100 0.0 1009172